This is the latest recevied weather packets stored in our database for station/object N4AR. If no packets are shown the sender has not sent any weather packets the latest 10 day(s).
| Time | Temp. | Humidity | Pressure | Rain* | Wind** | Luminosity | Snow |
|---|---|---|---|---|---|---|---|
| 1777895768 | 12.78° C | 69% | 1017 hPa | 0 mm | - | 43 W/m² | - |
| 1777895464 | 12.22° C | 70% | 1017 hPa | 0 mm | - | 42 W/m² | - |
| 1777895162 | 12.22° C | 71% | 1016.8 hPa | 0 mm | - | 42 W/m² | - |
| 1777894859 | 11.67° C | 72% | 1016.9 hPa | 0 mm | - | 39 W/m² | - |
| 1777894556 | 11.67° C | 72% | 1016.7 hPa | 0 mm | - | 38 W/m² | - |
| 1777894254 | 11.11° C | 73% | 1017 hPa | 0 mm | - | 37 W/m² | - |
| 1777893950 | 11.11° C | 74% | 1017.1 hPa | 0 mm | - | 34 W/m² | - |
| 1777893647 | 11.11° C | 74% | 1017.1 hPa | 0 mm | - | 32 W/m² | - |
| 1777893343 | 10.56° C | 75% | 1017.2 hPa | 0 mm | - | 29 W/m² | - |
| 1777893039 | 10.56° C | 75% | 1017.2 hPa | 0 mm | - | 27 W/m² | - |
| 1777892737 | 10.56° C | 74% | 1017.1 hPa | 0 mm | - | 26 W/m² | - |
| 1777892433 | 10.56° C | 74% | 1017.2 hPa | 0 mm | - | 24 W/m² | - |
| 1777892129 | 10.56° C | 74% | 1016.8 hPa | 0 mm | - | 23 W/m² | - |
| 1777891826 | 10.56° C | 74% | 1016.9 hPa | 0 mm | - | 22 W/m² | - |
| 1777891523 | 10.56° C | 74% | 1017 hPa | 0 mm | - | 21 W/m² | - |
| 1777891220 | 10.56° C | 74% | 1017.1 hPa | 0 mm | - | 14 W/m² | - |
| 1777890920 | 10.56° C | 73% | 1016.9 hPa | 0 mm | - | 10 W/m² | - |
| 1777890615 | 10.56° C | 73% | 1016.8 hPa | 0 mm | - | 8 W/m² | - |
| 1777890310 | 11.11° C | 72% | 1016.9 hPa | 0 mm | - | 6 W/m² | - |
| 1777890007 | 11.11° C | 72% | 1016.8 hPa | 0 mm | - | 4 W/m² | - |
| 1777889705 | 11.11° C | 73% | 1016.8 hPa | 0 mm | - | 2 W/m² | - |
| 1777889403 | 11.11° C | 73% | 1016.8 hPa | 0 mm | - | 1 W/m² | - |
| 1777889100 | 10.56° C | 74% | 1016.9 hPa | 0 mm | - | 1 W/m² | - |
| 1777888796 | 10.56° C | 75% | 1016.9 hPa | 0 mm | - | 0 W/m² | - |
| 1777888493 | 10.56° C | 76% | 1017.1 hPa | 0 mm | - | 0 W/m² | - |
* Rain latest hour (hover to see other rain measurements)
** Current wind speed in m/s (hover to see current wind gust speed)